Syracuse, NY

10:16 AM EDT on April 28, 2017 (GMT -0400)
Syracuse Hancock International

Weather History for KSYR - May, 2014

Change the Weather History Date:

Sunday, May 11, 2014

  Actual Average Record
Temperature  
Mean Temperature 61 °F 56 °F  
Max Temperature 72 °F 67 °F 90 °F (1911)
Min Temperature 49 °F 45 °F 29 °F (1949)
Degree Days  
Heating Degree Days 4 9  
Month to date heating degree days 101 119  
Since 1 July heating degree days 6966 6454  
Cooling Degree Days 0 1  
Month to date cooling degree days 3 1  
Year to date cooling degree days 4 5  
Growing Degree Days 10 (Base 50)    
Moisture  
Dew Point 40 °F    
Average Humidity 56    
Maximum Humidity 80    
Minimum Humidity 31    
Precipitation  
Precipitation 0.00 in 0.10 in 1.14 in (2003)
Month to date precipitation 1.21 1.09  
Year to date precipitation 14.88 11.80  
Snow  
Snow 0.00 in 0.00 in 0.00 in (2002)
Month to date snowfall 0.0 0.1  
Since 1 July snowfall 132.0 123.8  
Snow Depth 0.00 in    
Sea Level Pressure  
Sea Level Pressure 30.03 in    
Wind  
Wind Speed 8 mph (West)    
Max Wind Speed 17 mph    
Max Gust Speed 23 mph    
Visibility 10 miles    
Events      
T = Trace of Precipitation, MM = Missing Value Source: NWS Daily Summary

Daily Weather History Graph

Daily Weather History Graph

Search for Another Location

Airport or City:

Trip Planner

Search our weather history database for the weather conditions in past years. The results will help you decide how hot, cold, wet, or windy it might be!

Date:

Astronomy

May. 11, 2014 Rise Set
Actual Time 5:45 AM EDT 8:16 PM EDT
Civil Twilight 5:13 AM EDT 8:49 PM EDT
Nautical Twilight 4:32 AM EDT 9:29 PM EDT
Astronomical Twilight 3:47 AM EDT 10:15 PM EDT
Moon 5:05 PM EDT (5/11) 3:54 AM EDT (5/11)
Length of Visible Light 15h 36m
Length of Day
14h 31m
Waxing Gibbous, 89% of the Moon is Illuminated
May 11
Waxing Gibbous
May 14
Full
May 21
Last Quarter
May 28
New
Jun 5
First Quarter

Hourly Weather History & Observations

Time (EDT) Temp. Dew Point Humidity Pressure Visibility Wind Dir Wind Speed Gust Speed Precip Events Conditions
12:54 AM 55.9 °F 39.0 °F 53% 29.91 in 10.0 mi WSW 8.1 mph - N/A   Mostly Cloudy
1:54 AM 55.9 °F 39.9 °F 55% 29.91 in 10.0 mi WSW 10.4 mph - N/A   Scattered Clouds
2:54 AM 54.0 °F 41.0 °F 62% 29.93 in 10.0 mi West 9.2 mph - N/A   Partly Cloudy
3:54 AM 51.1 °F 42.1 °F 71% 29.95 in 10.0 mi West 5.8 mph - N/A   Partly Cloudy
4:54 AM 50.0 °F 42.1 °F 74% 29.97 in 10.0 mi West 6.9 mph - N/A   Clear
5:54 AM 48.9 °F 42.1 °F 77% 29.98 in 10.0 mi West 9.2 mph - N/A   Partly Cloudy
6:54 AM 52.0 °F 43.0 °F 71% 30.02 in 10.0 mi West 9.2 mph - N/A   Clear
7:54 AM 55.0 °F 41.0 °F 59% 30.06 in 10.0 mi West 13.8 mph - N/A   Clear
8:54 AM 57.9 °F 41.0 °F 53% 30.06 in 10.0 mi West 10.4 mph - N/A   Partly Cloudy
9:54 AM 60.1 °F 39.9 °F 47% 30.06 in 10.0 mi West 8.1 mph - N/A   Partly Cloudy
10:54 AM 62.1 °F 39.9 °F 44% 30.08 in 10.0 mi West 11.5 mph 16.1 mph N/A   Partly Cloudy
11:54 AM 64.0 °F 39.9 °F 41% 30.09 in 10.0 mi WSW 13.8 mph 23.0 mph N/A   Partly Cloudy
12:54 PM 66.9 °F 39.9 °F 37% 30.09 in 10.0 mi West 11.5 mph 19.6 mph N/A   Partly Cloudy
1:54 PM 69.1 °F 39.0 °F 33% 30.08 in 10.0 mi West 12.7 mph - N/A   Partly Cloudy
2:54 PM 70.0 °F 39.0 °F 32% 30.06 in 10.0 mi SW 5.8 mph - N/A   Partly Cloudy
3:54 PM 72.0 °F 39.0 °F 30% 30.04 in 10.0 mi West 11.5 mph 16.1 mph N/A   Partly Cloudy
4:54 PM 72.0 °F 39.0 °F 30% 30.04 in 10.0 mi WSW 11.5 mph - N/A   Scattered Clouds
5:54 PM 72.0 °F 39.0 °F 30% 30.04 in 10.0 mi WSW 12.7 mph - N/A   Scattered Clouds
6:54 PM 70.0 °F 37.9 °F 31% 30.03 in 10.0 mi West 8.1 mph - N/A   Scattered Clouds
7:54 PM 68.0 °F 39.9 °F 36% 30.04 in 10.0 mi West 6.9 mph - N/A   Scattered Clouds
8:54 PM 64.9 °F 37.9 °F 37% 30.05 in 10.0 mi Calm Calm - N/A   Scattered Clouds
9:54 PM 61.0 °F 39.9 °F 46% 30.05 in 10.0 mi Calm Calm - N/A   Scattered Clouds
10:54 PM 60.1 °F 43.0 °F 53% 30.04 in 10.0 mi Calm Calm - N/A   Partly Cloudy
11:54 PM 59.0 °F 42.1 °F 53% 30.05 in 10.0 mi Calm Calm - N/A   Partly Cloudy